,,,PA_Meas_PMT16A,,PR_Meas_QMR101_102,,RH_Meas_QMH101,,SR_Meas_QMS101,,TA_Meas_QMH101,,GenWind,,GenWind,
date,time,status,PA,status,PR,status,RH,status,SR,status,TA,status,DirAvg,status,SpdAvg,
2010-11-27, 00:00:04,VALID,998.902,VALID,0,VALID,91.7157,VALID,0,VALID,22.8623,VALID,109,VALID,0,
2010-11-27, 00:01:04,VALID,998.89,VALID,0,VALID,91.8377,VALID,0,VALID,22.8427,VALID,109,VALID,0,
2010-11-27, 00:02:04,VALID,998.918,VALID,0,VALID,91.9217,VALID,0,VALID,22.8445,VALID,109,VALID,0,
2010-11-27, 00:03:04,VALID,998.897,VALID,0,VALID,92.0132,VALID,0,VALID,22.8232,VALID,109,VALID,0,
2010-11-27, 00:04:04,VALID,998.874,VALID,0,VALID,92.1048,VALID,0,VALID,22.8037,VALID,109,VALID,0,
2010-11-27, 00:05:04,VALID,998.848,VALID,0,VALID,92.1429,VALID,0,VALID,22.8055,VALID,109,VALID,0,
2010-11-27, 00:06:04,VALID,998.829,VALID,0,VALID,92.1887,VALID,0,VALID,22.7647,VALID,109,VALID,0,
2010-11-27, 00:07:04,VALID,998.818,VALID,0,VALID,92.2421,VALID,0,VALID,22.7647,VALID,109,VALID,0,
2010-11-27, 00:08:04,VALID,998.828,VALID,0,VALID,92.3031,VALID,0,VALID,22.7842,VALID,109,VALID,0,
2010-11-27, 00:09:04,VALID,998.81,VALID,0,VALID,92.3413,VALID,0,VALID,22.7842,VALID,109,VALID,0,
2010-11-27, 00:10:04,VALID,998.828,VALID,0,VALID,92.3566,VALID,0,VALID,22.7842,VALID,109,VALID,0,
2010-11-27, 00:11:04,VALID,998.869,VALID,0,VALID,92.3794,VALID,0,VALID,22.7842,VALID,109,VALID,0,
2010-11-27, 00:12:04,VALID,998.847,VALID,0,VALID,92.4023,VALID,0,VALID,22.7842,VALID,109,VALID,0,
2010-11-27, 00:13:04,VALID,998.873,VALID,0,VALID,92.3947,VALID,0,VALID,22.7647,VALID,109,VALID,0,
2010-11-27, 00:14:04,VALID,998.815,VALID,0,VALID,92.4405,VALID,0,VALID,22.7647,VALID,109,VALID,0.285937,
2010-11-27, 00:15:04,VALID,998.829,VALID,0,VALID,92.4252,VALID,0,VALID,22.7647,VALID,109,VALID,0,
2010-11-27, 00:16:04,VALID,998.797,VALID,0,VALID,92.41,VALID,0,VALID,22.7452,VALID,109,VALID,0,
2010-11-27, 00:17:04,VALID,998.758,VALID,0,VALID,92.3718,VALID,0,VALID,22.7452,VALID,109,VALID,0,
2010-11-27, 00:18:04,VALID,998.719,VALID,0,VALID,92.3413,VALID,0,VALID,22.7647,VALID,109,VALID,0,
2010-11-27, 00:19:04,VALID,998.716,VALID,0,VALID,92.3184,VALID,0,VALID,22.7452,VALID,109,VALID,0,
2010-11-27, 00:20:04,VALID,998.678,VALID,0,VALID,92.2879,VALID,0,VALID,22.7647,VALID,109,VALID,0,
2010-11-27, 00:21:04,VALID,998.635,VALID,0,VALID,92.2955,VALID,0,VALID,22.7647,VALID,109,VALID,0,
2010-11-27, 00:22:04,VALID,998.658,VALID,0,VALID,92.3031,VALID,0,VALID,22.8055,VALID,109,VALID,0,
2010-11-27, 00:23:04,VALID,998.631,VALID,0,VALID,92.2803,VALID,0,VALID,22.8037,VALID,109,VALID,0,
2010-11-27, 00:24:04,VALID,998.631,VALID,0,VALID,92.265,VALID,0,VALID,22.8232,VALID,109,VALID,0,
2010-11-27, 00:25:04,VALID,998.608,VALID,0,VALID,92.2268,VALID,0,VALID,22.8232,VALID,109,VALID,0,
2010-11-27, 00:26:04,VALID,998.603,VALID,0,VALID,92.1887,VALID,0,VALID,22.8232,VALID,109,VALID,0,
2010-11-27, 00:27:04,VALID,998.583,VALID,0,VALID,92.0971,VALID,0,VALID,22.8232,VALID,109,VALID,0.323438,
2010-11-27, 00:28:04,VALID,998.574,VALID,0,VALID,91.9751,VALID,0,VALID,22.8037,VALID,109,VALID,0.539453,
2010-11-27, 00:29:04,VALID,998.556,VALID,0,VALID,91.8835,VALID,0,VALID,22.8055,VALID,102,VALID,0.7375,
2010-11-27, 00:30:04,VALID,998.621,VALID,0,VALID,91.8835,VALID,0,VALID,22.8445,VALID,102,VALID,0.594922,
2010-11-27, 00:31:04,VALID,998.61,VALID,0,VALID,91.8835,VALID,0,VALID,22.8835,VALID,99,VALID,0.826563,
2010-11-27, 00:32:04,VALID,998.605,VALID,0,VALID,91.8683,VALID,0,VALID,22.8835,VALID,99,VALID,0.836719,
2010-11-27, 00:33:04,VALID,998.618,VALID,0,VALID,91.7843,VALID,0,VALID,22.8835,VALID,99,VALID,0.613281,
2010-11-27, 00:34:04,VALID,998.598,VALID,0,VALID,91.7538,VALID,0,VALID,22.903,VALID,99,VALID,0.498828,
2010-11-27, 00:35:04,VALID,998.567,VALID,0,VALID,91.6928,VALID,0,VALID,22.9013,VALID,99,VALID,0.460547,
2010-11-27, 00:36:04,VALID,998.574,VALID,0,VALID,91.647,VALID,0,VALID,22.903,VALID,99,VALID,0.238672,
2010-11-27, 00:37:04,VALID,998.568,VALID,0,VALID,91.5631,VALID,0,VALID,22.8623,VALID,99,VALID,0.377734,
2010-11-27, 00:38:04,VALID,998.584,VALID,0,VALID,91.5097,VALID,0,VALID,22.8232,VALID,99,VALID,0.314453,
2010-11-27, 00:39:04,VALID,998.595,VALID,0,VALID,91.4868,VALID,0,VALID,22.7842,VALID,99,VALID,0.344922,
2010-11-27, 00:40:04,VALID,998.594,VALID,0,VALID,91.5097,VALID,0,VALID,22.7842,VALID,99,VALID,0.491797,
2010-11-27, 00:41:04,VALID,998.561,VALID,0,VALID,91.5173,VALID,0,VALID,22.7257,VALID,99,VALID,0.232031,
2010-11-27, 00:42:04,VALID,998.587,VALID,0,VALID,91.4868,VALID,0,VALID,22.7079,VALID,99,VALID,0,
2010-11-27, 00:43:04,VALID,998.537,VALID,0,VALID,91.4486,VALID,0,VALID,22.6282,VALID,99,VALID,0,
2010-11-27, 00:44:04,VALID,998.508,VALID,0,VALID,91.441,VALID,0,VALID,22.5909,VALID,99,VALID,0,
2010-11-27, 00:45:04,VALID,998.473,VALID,0,VALID,91.5249,VALID,0,VALID,22.5696,VALID,99,VALID,0,
2010-11-27, 00:46:04,VALID,998.474,VALID,0,VALID,91.6623,VALID,0,VALID,22.5501,VALID,99,VALID,0,
2010-11-27, 00:47:04,VALID,998.464,VALID,0,VALID,91.8835,VALID,0,VALID,22.6299,VALID,99,VALID,0,
2010-11-27, 00:48:04,VALID,998.457,VALID,0,VALID,92.0743,VALID,0,VALID,22.6689,VALID,99,VALID,0,
2010-11-27, 00:49:04,VALID,998.464,VALID,0,VALID,92.1963,VALID,0,VALID,22.6689,VALID,99,VALID,0,
2010-11-27, 00:50:04,VALID,998.463,VALID,0,VALID,92.326,VALID,0,VALID,22.6884,VALID,99,VALID,0,
2010-11-27, 00:51:04,VALID,998.437,VALID,0,VALID,92.4176,VALID,0,VALID,22.6884,VALID,99,VALID,0,
2010-11-27, 00:52:04,VALID,998.436,VALID,0,VALID,92.4863,VALID,0,VALID,22.6672,VALID,99,VALID,0,
2010-11-27, 00:53:04,VALID,998.394,VALID,0,VALID,92.5702,VALID,0,VALID,22.6689,VALID,99,VALID,0,
2010-11-27, 00:54:04,VALID,998.391,VALID,0,VALID,92.6007,VALID,0,VALID,22.6672,VALID,99,VALID,0,
2010-11-27, 00:55:04,VALID,998.378,VALID,0,VALID,92.616,VALID,0,VALID,22.6689,VALID,99,VALID,0,
2010-11-27, 00:56:04,VALID,998.364,VALID,0,VALID,92.6465,VALID,0,VALID,22.6884,VALID,99,VALID,0,
2010-11-27, 00:57:04,VALID,998.358,VALID,0,VALID,92.6617,VALID,0,VALID,22.6672,VALID,99,VALID,0,
2010-11-27, 00:58:04,VALID,998.339,VALID,0,VALID,92.6694,VALID,0,VALID,22.6672,VALID,99,VALID,0,
2010-11-27, 00:59:04,VALID,998.307,VALID,0,VALID,92.677,VALID,0,VALID,22.6672,VALID,99,VALID,0,
2010-11-27, 01:00:04,VALID,998.296,VALID,0,VALID,92.6312,VALID,0,VALID,22.6477,VALID,99,VALID,0,
2010-11-27, 01:01:04,VALID,998.269,VALID,0,VALID,92.6236,VALID,0,VALID,22.6672,VALID,99,VALID,0,
2010-11-27, 01:02:04,VALID,998.253,VALID,0,VALID,92.6007,VALID,0,VALID,22.6884,VALID,99,VALID,0.379687,
2010-11-27, 01:03:04,VALID,998.247,VALID,0,VALID,92.5549,VALID,0,VALID,22.6884,VALID,99,VALID,0,
2010-11-27, 01:04:04,VALID,998.238,VALID,0,VALID,92.4557,VALID,0,VALID,22.7079,VALID,99,VALID,0.245312,
2010-11-27, 01:05:04,VALID,998.204,VALID,0,VALID,92.41,VALID,0,VALID,22.7079,VALID,116,VALID,0.680469,
2010-11-27, 01:06:04,VALID,998.226,VALID,0,VALID,92.2955,VALID,0,VALID,22.6884,VALID,116,VALID,0.34375,
2010-11-27, 01:07:04,VALID,998.247,VALID,0,VALID,92.1963,VALID,0,VALID,22.6672,VALID,116,VALID,0.4125,
2010-11-27, 01:08:04,VALID,998.279,VALID,0,VALID,92.12,VALID,0,VALID,22.6672,VALID,116,VALID,0.491406,
2010-11-27, 01:09:04,VALID,998.278,VALID,0,VALID,92.0819,VALID,0,VALID,22.6672,VALID,116,VALID,0.422266,
2010-11-27, 01:10:04,VALID,998.274,VALID,0,VALID,92.0285,VALID,0,VALID,22.6689,VALID,116,VALID,0.295703,
2010-11-27, 01:11:04,VALID,998.275,VALID,0,VALID,91.9522,VALID,0,VALID,22.6494,VALID,116,VALID,0.3625,
2010-11-27, 01:12:04,VALID,998.283,VALID,0,VALID,91.914,VALID,0,VALID,22.6494,VALID,116,VALID,0.391406,
2010-11-27, 01:13:04,VALID,998.303,VALID,0,VALID,91.9369,VALID,0,VALID,22.6299,VALID,116,VALID,0.459766,
2010-11-27, 01:14:04,VALID,998.241,VALID,0,VALID,91.9598,VALID,0,VALID,22.5892,VALID,116,VALID,0.446094,
2010-11-27, 01:15:04,VALID,998.252,VALID,0,VALID,92.0132,VALID,0,VALID,22.5696,VALID,116,VALID,0.364062,
2010-11-27, 01:16:04,VALID,998.222,VALID,0,VALID,92.0361,VALID,0,VALID,22.5501,VALID,116,VALID,0.401953,
2010-11-27, 01:17:04,VALID,998.199,VALID,0,VALID,92.0132,VALID,0,VALID,22.5306,VALID,116,VALID,0.383984,
2010-11-27, 01:18:04,VALID,998.181,VALID,0,VALID,92.0666,VALID,0,VALID,22.4916,VALID,116,VALID,0.369531,
2010-11-27, 01:19:04,VALID,998.194,VALID,0,VALID,92.0971,VALID,0,VALID,22.4933,VALID,116,VALID,0.427734,
2010-11-27, 01:20:04,VALID,998.142,VALID,0,VALID,92.1582,VALID,0,VALID,22.4933,VALID,116,VALID,0.387109,
2010-11-27, 01:21:04,VALID,998.168,VALID,0,VALID,92.2497,VALID,0,VALID,22.4933,VALID,116,VALID,0.283594,
2010-11-27, 01:22:04,VALID,998.122,VALID,0,VALID,92.3108,VALID,0,VALID,22.4738,VALID,116,VALID,0.105859,
2010-11-27, 01:23:04,VALID,998.089,VALID,0,VALID,92.3413,VALID,0,VALID,22.4136,VALID,116,VALID,0,
2010-11-27, 01:24:04,VALID,998.074,VALID,0,VALID,92.3642,VALID,0,VALID,22.4153,VALID,116,VALID,0,
2010-11-27, 01:25:04,VALID,998,VALID,0,VALID,92.471,VALID,0,VALID,22.4331,VALID,116,VALID,0,
2010-11-27, 01:26:04,VALID,997.971,VALID,0,VALID,92.5168,VALID,0,VALID,22.4331,VALID,116,VALID,0,
2010-11-27, 01:27:04,VALID,997.911,VALID,0,VALID,92.5931,VALID,0,VALID,22.4348,VALID,116,VALID,0.180859,
2010-11-27, 01:28:04,VALID,997.872,VALID,0,VALID,92.6465,VALID,0,VALID,22.4153,VALID,116,VALID,0,
2010-11-27, 01:29:04,VALID,997.839,VALID,0,VALID,92.7075,VALID,0,VALID,22.4348,VALID,116,VALID,0.00078125,
2010-11-27, 01:30:04,VALID,997.853,VALID,0,VALID,92.7685,VALID,0,VALID,22.4331,VALID,116,VALID,0.182031,
2010-11-27, 01:31:04,VALID,997.845,VALID,0,VALID,92.8143,VALID,0,VALID,22.4331,VALID,116,VALID,0.107813,
2010-11-27, 01:32:04,VALID,997.889,VALID,0,VALID,92.8448,VALID,0,VALID,22.4738,VALID,116,VALID,0.172266,
2010-11-27, 01:33:04,VALID,997.929,VALID,0,VALID,92.8983,VALID,0,VALID,22.4136,VALID,116,VALID,0,
2010-11-27, 01:34:04,VALID,997.938,VALID,0,VALID,92.9211,VALID,0,VALID,22.4136,VALID,116,VALID,0.03125,
2010-11-27, 01:35:04,VALID,997.903,VALID,0,VALID,92.9364,VALID,0,VALID,22.4136,VALID,116,VALID,0,
2010-11-27, 01:36:04,VALID,997.951,VALID,0,VALID,92.9822,VALID,0,VALID,22.4331,VALID,116,VALID,0,
2010-11-27, 01:37:04,VALID,997.93,VALID,0,VALID,93.0127,VALID,0,VALID,22.4721,VALID,116,VALID,0,
2010-11-27, 01:38:04,VALID,997.939,VALID,0,VALID,93.0585,VALID,0,VALID,22.4721,VALID,116,VALID,0,
2010-11-27, 01:39:04,VALID,997.934,VALID,0,VALID,93.0737,VALID,0,VALID,22.4721,VALID,116,VALID,0,
2010-11-27, 01:40:04,VALID,997.932,VALID,0,VALID,93.1043,VALID,0,VALID,22.4721,VALID,116,VALID,0,
2010-11-27, 01:41:04,VALID,997.946,VALID,0,VALID,93.1195,VALID,0,VALID,22.4738,VALID,116,VALID,0,
2010-11-27, 01:42:04,VALID,997.903,VALID,0,VALID,93.15,VALID,0,VALID,22.4526,VALID,116,VALID,0,
2010-11-27, 01:43:04,VALID,997.911,VALID,0,VALID,93.1729,VALID,0,VALID,22.4721,VALID,141,VALID,0.903125,
2010-11-27, 01:44:04,VALID,997.899,VALID,0,VALID,93.1958,VALID,0,VALID,22.4916,VALID,141,VALID,0.870703,
2010-11-27, 01:45:04,VALID,997.916,VALID,0,VALID,93.2034,VALID,0,VALID,22.5519,VALID,141,VALID,0.743359,
2010-11-27, 01:46:04,VALID,997.95,VALID,0,VALID,93.1958,VALID,0,VALID,22.5501,VALID,141,VALID,0.809375,
2010-11-27, 01:47:04,VALID,997.948,VALID,0,VALID,93.1805,VALID,0,VALID,22.5909,VALID,141,VALID,0.957422,
2010-11-27, 01:48:04,VALID,997.958,VALID,0,VALID,93.2034,VALID,0,VALID,22.5892,VALID,141,VALID,0.794531,
2010-11-27, 01:49:04,VALID,998.012,VALID,0,VALID,93.1577,VALID,0,VALID,22.6087,VALID,140,VALID,0.706641,
2010-11-27, 01:50:04,VALID,997.978,VALID,0,VALID,93.1348,VALID,0,VALID,22.6087,VALID,137,VALID,0.608984,
2010-11-27, 01:51:04,VALID,997.963,VALID,0,VALID,93.0966,VALID,0,VALID,22.6087,VALID,137,VALID,0.540234,
2010-11-27, 01:52:04,VALID,997.928,VALID,0,VALID,93.0508,VALID,0,VALID,22.5892,VALID,137,VALID,0.184375,
2010-11-27, 01:53:04,VALID,997.934,VALID,0,VALID,93.0356,VALID,0,VALID,22.5696,VALID,137,VALID,0.0347656,
2010-11-27, 01:54:04,VALID,997.889,VALID,0,VALID,92.9517,VALID,0,VALID,22.4916,VALID,137,VALID,0.200781,
2010-11-27, 01:55:04,VALID,997.87,VALID,0,VALID,92.8677,VALID,0,VALID,22.4721,VALID,137,VALID,0,
2010-11-27, 01:56:04,VALID,997.833,VALID,0,VALID,92.7991,VALID,0,VALID,22.4916,VALID,137,VALID,0,
2010-11-27, 01:57:04,VALID,997.812,VALID,0,VALID,92.7838,VALID,0,VALID,22.5306,VALID,137,VALID,0,
2010-11-27, 01:58:04,VALID,997.795,VALID,0,VALID,92.7914,VALID,0,VALID,22.5501,VALID,137,VALID,0.133203,
2010-11-27, 01:59:04,VALID,997.795,VALID,0,VALID,92.8067,VALID,0,VALID,22.6087,VALID,137,VALID,0,
2010-11-27, 02:00:04,VALID,997.786,VALID,0,VALID,92.7991,VALID,0,VALID,22.6087,VALID,137,VALID,0,
2010-11-27, 02:01:04,VALID,997.808,VALID,0,VALID,92.7991,VALID,0,VALID,22.6104,VALID,137,VALID,0,
2010-11-27, 02:02:04,VALID,997.798,VALID,0,VALID,92.8143,VALID,0,VALID,22.6494,VALID,137,VALID,0,
2010-11-27, 02:03:04,VALID,997.812,VALID,0,VALID,92.8067,VALID,0,VALID,22.6282,VALID,137,VALID,0,
2010-11-27, 02:04:04,VALID,997.796,VALID,0,VALID,92.7991,VALID,0,VALID,22.6477,VALID,137,VALID,0,
2010-11-27, 02:05:04,VALID,997.775,VALID,0,VALID,92.8143,VALID,0,VALID,22.6672,VALID,137,VALID,0,
2010-11-27, 02:06:04,VALID,997.776,VALID,0,VALID,92.8067,VALID,0,VALID,22.6689,VALID,137,VALID,0,
2010-11-27, 02:07:04,VALID,997.786,VALID,0,VALID,92.8067,VALID,0,VALID,22.6477,VALID,137,VALID,0,
2010-11-27, 02:08:04,VALID,997.796,VALID,0,VALID,92.7762,VALID,0,VALID,22.5892,VALID,137,VALID,0,
2010-11-27, 02:09:04,VALID,997.767,VALID,0,VALID,92.7304,VALID,0,VALID,22.5909,VALID,137,VALID,0,
2010-11-27, 02:10:04,VALID,997.741,VALID,0,VALID,92.7228,VALID,0,VALID,22.5306,VALID,137,VALID,0,
2010-11-27, 02:11:04,VALID,997.731,VALID,0,VALID,92.7228,VALID,0,VALID,22.5696,VALID,137,VALID,0,
2010-11-27, 02:12:04,VALID,997.778,VALID,0,VALID,92.7151,VALID,0,VALID,22.6087,VALID,137,VALID,0,
2010-11-27, 02:13:04,VALID,997.778,VALID,0,VALID,92.7533,VALID,0,VALID,22.6087,VALID,137,VALID,0,
2010-11-27, 02:14:04,VALID,997.816,VALID,0,VALID,92.7914,VALID,0,VALID,22.6087,VALID,137,VALID,0,
2010-11-27, 02:15:04,VALID,997.829,VALID,0,VALID,92.7762,VALID,0,VALID,22.5892,VALID,137,VALID,0,
2010-11-27, 02:16:04,VALID,997.822,VALID,0,VALID,92.7609,VALID,0,VALID,22.5696,VALID,137,VALID,0,
2010-11-27, 02:17:04,VALID,997.846,VALID,0,VALID,92.7609,VALID,0,VALID,22.5501,VALID,137,VALID,0,
2010-11-27, 02:18:04,VALID,997.854,VALID,0,VALID,92.7685,VALID,0,VALID,22.5306,VALID,137,VALID,0,
2010-11-27, 02:19:04,VALID,997.866,VALID,0,VALID,92.7533,VALID,0,VALID,22.4916,VALID,137,VALID,0,
2010-11-27, 02:20:04,VALID,997.882,VALID,0,VALID,92.7228,VALID,0,VALID,22.4348,VALID,137,VALID,0,
2010-11-27, 02:21:04,VALID,997.874,VALID,0,VALID,92.738,VALID,0,VALID,22.4331,VALID,137,VALID,0,
2010-11-27, 02:22:04,VALID,997.92,VALID,0,VALID,92.7457,VALID,0,VALID,22.3941,VALID,51,VALID,0,
2010-11-27, 02:23:04,VALID,997.904,VALID,0,VALID,92.7838,VALID,0,VALID,22.3746,VALID,51,VALID,0,
2010-11-27, 02:24:04,VALID,997.875,VALID,0,VALID,92.7914,VALID,0,VALID,22.3161,VALID,33,VALID,0.722266,
2010-11-27, 02:25:04,VALID,997.873,VALID,0,VALID,92.8296,VALID,0,VALID,22.2966,VALID,33,VALID,0.626953,
2010-11-27, 02:26:04,VALID,997.842,VALID,0,VALID,92.8754,VALID,0,VALID,22.3161,VALID,33,VALID,0.530469,
2010-11-27, 02:27:04,VALID,997.822,VALID,0,VALID,92.9364,VALID,0,VALID,22.3356,VALID,33,VALID,0.447266,
2010-11-27, 02:28:04,VALID,997.841,VALID,0,VALID,92.9517,VALID,0,VALID,22.2771,VALID,33,VALID,0.542578,
2010-11-27, 02:29:04,VALID,997.833,VALID,0,VALID,92.9822,VALID,0,VALID,22.2381,VALID,33,VALID,0.521094,
2010-11-27, 02:30:04,VALID,997.853,VALID,0,VALID,93.028,VALID,0,VALID,22.2576,VALID,33,VALID,0.450781,
2010-11-27, 02:31:04,VALID,997.867,VALID,0,VALID,93.028,VALID,0,VALID,22.2381,VALID,33,VALID,0.484375,
2010-11-27, 02:32:04,VALID,997.857,VALID,0,VALID,93.0585,VALID,0,VALID,22.199,VALID,33,VALID,0.48125,
2010-11-27, 02:33:04,VALID,997.87,VALID,0,VALID,93.0814,VALID,0,VALID,22.199,VALID,33,VALID,0.399219,
2010-11-27, 02:34:04,VALID,997.832,VALID,0,VALID,93.1043,VALID,0,VALID,22.199,VALID,33,VALID,0,
2010-11-27, 02:35:04,VALID,997.822,VALID,0,VALID,93.1119,VALID,0,VALID,22.16,VALID,33,VALID,0,
2010-11-27, 02:36:04,VALID,997.776,VALID,0,VALID,93.1424,VALID,0,VALID,22.16,VALID,33,VALID,0,
2010-11-27, 02:37:04,VALID,997.77,VALID,0,VALID,93.1577,VALID,0,VALID,22.2007,VALID,33,VALID,0,
2010-11-27, 02:38:04,VALID,997.77,VALID,0,VALID,93.1729,VALID,0,VALID,22.199,VALID,33,VALID,0,
2010-11-27, 02:39:04,VALID,997.803,VALID,0,VALID,93.1882,VALID,0,VALID,22.2186,VALID,33,VALID,0,
2010-11-27, 02:40:04,VALID,997.811,VALID,0,VALID,93.2187,VALID,0,VALID,22.2364,VALID,33,VALID,0,
2010-11-27, 02:41:04,VALID,997.805,VALID,0,VALID,93.234,VALID,0,VALID,22.2771,VALID,33,VALID,0,
2010-11-27, 02:42:04,VALID,997.793,VALID,0,VALID,93.2645,VALID,0,VALID,22.3161,VALID,33,VALID,0,
2010-11-27, 02:43:04,VALID,997.768,VALID,0,VALID,93.2721,VALID,0,VALID,22.3161,VALID,33,VALID,0,
2010-11-27, 02:44:04,VALID,997.766,VALID,0,VALID,93.2874,VALID,0,VALID,22.3178,VALID,33,VALID,0,
2010-11-27, 02:45:04,VALID,997.741,VALID,0,VALID,93.2874,VALID,0,VALID,22.2966,VALID,33,VALID,0,
2010-11-27, 02:46:04,VALID,997.767,VALID,0,VALID,93.3179,VALID,0,VALID,22.2576,VALID,33,VALID,0,
2010-11-27, 02:47:04,VALID,997.805,VALID,0,VALID,93.3103,VALID,0,VALID,22.2771,VALID,33,VALID,0,
2010-11-27, 02:48:04,VALID,997.811,VALID,0,VALID,93.3179,VALID,0,VALID,22.2966,VALID,33,VALID,0,
2010-11-27, 02:49:04,VALID,997.804,VALID,0,VALID,93.3408,VALID,0,VALID,22.3161,VALID,33,VALID,0,
2010-11-27, 02:50:04,VALID,997.836,VALID,0,VALID,93.3408,VALID,0,VALID,22.3161,VALID,33,VALID,0,
2010-11-27, 02:51:04,VALID,997.826,VALID,0,VALID,93.3713,VALID,0,VALID,22.2966,VALID,33,VALID,0,
2010-11-27, 02:52:04,VALID,997.826,VALID,0,VALID,93.3789,VALID,0,VALID,22.3568,VALID,33,VALID,0,
2010-11-27, 02:53:04,VALID,997.79,VALID,0,VALID,93.3637,VALID,0,VALID,22.3568,VALID,33,VALID,0,
2010-11-27, 02:54:04,VALID,997.811,VALID,0,VALID,93.3866,VALID,0,VALID,22.3161,VALID,33,VALID,0,
2010-11-27, 02:55:04,VALID,997.836,VALID,0,VALID,93.4094,VALID,0,VALID,22.3161,VALID,33,VALID,0,
2010-11-27, 02:56:04,VALID,997.823,VALID,0,VALID,93.4018,VALID,0,VALID,22.2966,VALID,33,VALID,0,
2010-11-27, 02:57:04,VALID,997.842,VALID,0,VALID,93.4018,VALID,0,VALID,22.2771,VALID,33,VALID,0,
2010-11-27, 02:58:04,VALID,997.84,VALID,0,VALID,93.4247,VALID,0,VALID,22.2576,VALID,33,VALID,0,
2010-11-27, 02:59:04,VALID,997.833,VALID,0,VALID,93.4323,VALID,0,VALID,22.3178,VALID,33,VALID,0,
2010-11-27, 03:00:04,VALID,997.859,VALID,0,VALID,93.44,VALID,0,VALID,22.3178,VALID,33,VALID,0,
2010-11-27, 03:01:04,VALID,997.893,VALID,0,VALID,93.4552,VALID,0,VALID,22.2966,VALID,33,VALID,0,
2010-11-27, 03:02:04,VALID,997.882,VALID,0,VALID,93.4552,VALID,0,VALID,22.2966,VALID,33,VALID,0,
2010-11-27, 03:03:04,VALID,997.873,VALID,0,VALID,93.4476,VALID,0,VALID,22.3161,VALID,33,VALID,0,
2010-11-27, 03:04:04,VALID,997.853,VALID,0,VALID,93.4781,VALID,0,VALID,22.3161,VALID,33,VALID,0,
2010-11-27, 03:05:04,VALID,997.867,VALID,0,VALID,93.4705,VALID,0,VALID,22.2771,VALID,33,VALID,0,
2010-11-27, 03:06:04,VALID,997.862,VALID,0,VALID,93.4781,VALID,0,VALID,22.2576,VALID,33,VALID,0,
2010-11-27, 03:07:04,VALID,997.833,VALID,0,VALID,93.4857,VALID,0,VALID,22.2788,VALID,33,VALID,0,
2010-11-27, 03:08:04,VALID,997.825,VALID,0,VALID,93.501,VALID,0,VALID,22.2576,VALID,33,VALID,0,
2010-11-27, 03:09:04,VALID,997.84,VALID,0,VALID,93.4934,VALID,0,VALID,22.2771,VALID,33,VALID,0,
2010-11-27, 03:10:04,VALID,997.854,VALID,0,VALID,93.5239,VALID,0,VALID,22.2771,VALID,33,VALID,0,
2010-11-27, 03:11:04,VALID,997.822,VALID,0,VALID,93.5163,VALID,0,VALID,22.2576,VALID,33,VALID,0.343359,
2010-11-27, 03:12:05,VALID,997.783,VALID,0,VALID,93.5315,VALID,0,VALID,22.2771,VALID,33,VALID,0.816406,
2010-11-27, 03:13:05,VALID,997.812,VALID,0,VALID,93.5544,VALID,0,VALID,22.2966,VALID,33,VALID,0.909375,
2010-11-27, 03:14:05,VALID,997.775,VALID,0,VALID,93.5391,VALID,0,VALID,22.2966,VALID,33,VALID,1.02734,
2010-11-27, 03:15:05,VALID,997.74,VALID,0,VALID,93.5468,VALID,0,VALID,22.2186,VALID,33,VALID,0.96875,
2010-11-27, 03:16:05,VALID,997.75,VALID,0,VALID,93.5544,VALID,0,VALID,22.1227,VALID,33,VALID,0.801953,
2010-11-27, 03:17:05,VALID,997.749,VALID,0,VALID,93.5544,VALID,0,VALID,22.0235,VALID,33,VALID,0.26875,
2010-11-27, 03:18:05,VALID,997.712,VALID,0,VALID,93.562,VALID,0,VALID,21.9455,VALID,33,VALID,0,
2010-11-27, 03:19:05,VALID,997.718,VALID,0,VALID,93.5468,VALID,0,VALID,21.9277,VALID,33,VALID,0.0128906,
2010-11-27, 03:20:05,VALID,997.7,VALID,0,VALID,93.562,VALID,0,VALID,21.9472,VALID,33,VALID,0,
2010-11-27, 03:21:05,VALID,997.723,VALID,0,VALID,93.5773,VALID,0,VALID,21.9845,VALID,33,VALID,0,
2010-11-27, 03:22:05,VALID,997.713,VALID,0,VALID,93.5773,VALID,0,VALID,22.0252,VALID,33,VALID,0,
2010-11-27, 03:23:05,VALID,997.678,VALID,0,VALID,93.5773,VALID,0,VALID,22.0235,VALID,33,VALID,0,
2010-11-27, 03:24:05,VALID,997.736,VALID,0,VALID,93.5849,VALID,0,VALID,22.043,VALID,33,VALID,0,
2010-11-27, 03:25:05,VALID,997.72,VALID,0,VALID,93.6078,VALID,0,VALID,22.0642,VALID,33,VALID,0,
2010-11-27, 03:26:05,VALID,997.728,VALID,0,VALID,93.5773,VALID,0,VALID,22.1227,VALID,33,VALID,0,
2010-11-27, 03:27:05,VALID,997.735,VALID,0,VALID,93.5849,VALID,0,VALID,22.16,VALID,33,VALID,0,
2010-11-27, 03:28:05,VALID,997.733,VALID,0,VALID,93.6154,VALID,0,VALID,22.2788,VALID,33,VALID,0.424219,
2010-11-27, 03:29:05,VALID,997.75,VALID,0,VALID,93.6154,VALID,0,VALID,22.2966,VALID,33,VALID,0.216797,
2010-11-27, 03:30:05,VALID,997.743,VALID,0,VALID,93.6002,VALID,0,VALID,22.3356,VALID,33,VALID,0.327344,
2010-11-27, 03:31:05,VALID,997.743,VALID,0,VALID,93.6078,VALID,0,VALID,22.3958,VALID,33,VALID,0.360547,
2010-11-27, 03:32:05,VALID,997.753,VALID,0,VALID,93.5926,VALID,0,VALID,22.3958,VALID,33,VALID,0.176563,
2010-11-27, 03:33:05,VALID,997.744,VALID,0,VALID,93.6307,VALID,0,VALID,22.3763,VALID,33,VALID,0.128516,
2010-11-27, 03:34:05,VALID,997.718,VALID,0,VALID,93.6383,VALID,0,VALID,22.3161,VALID,33,VALID,0,
2010-11-27, 03:35:05,VALID,997.707,VALID,0,VALID,93.6002,VALID,0,VALID,22.199,VALID,33,VALID,0,
2010-11-27, 03:36:05,VALID,997.724,VALID,0,VALID,93.6231,VALID,0,VALID,22.1422,VALID,33,VALID,0,
2010-11-27, 03:37:05,VALID,997.753,VALID,0,VALID,93.6231,VALID,0,VALID,22.0625,VALID,33,VALID,0,
2010-11-27, 03:38:05,VALID,997.755,VALID,0,VALID,93.6383,VALID,0,VALID,22.043,VALID,33,VALID,0,
2010-11-27, 03:39:05,VALID,997.765,VALID,0,VALID,93.6307,VALID,0,VALID,22.0642,VALID,33,VALID,0,
2010-11-27, 03:40:05,VALID,997.816,VALID,0,VALID,93.6307,VALID,0,VALID,22.0235,VALID,33,VALID,0,
2010-11-27, 03:41:05,VALID,997.838,VALID,0,VALID,93.6383,VALID,0,VALID,22.0252,VALID,33,VALID,0,
2010-11-27, 03:42:05,VALID,997.871,VALID,0,VALID,93.646,VALID,0,VALID,22.0837,VALID,33,VALID,0,
2010-11-27, 03:43:05,VALID,997.888,VALID,0,VALID,93.6231,VALID,0,VALID,22.1015,VALID,33,VALID,0,
2010-11-27, 03:44:05,VALID,997.9,VALID,0,VALID,93.6154,VALID,0,VALID,22.16,VALID,33,VALID,0,
2010-11-27, 03:45:05,VALID,997.893,VALID,0,VALID,93.6383,VALID,0,VALID,22.16,VALID,33,VALID,0,
2010-11-27, 03:46:05,VALID,997.942,VALID,0,VALID,93.646,VALID,0,VALID,22.2007,VALID,33,VALID,0,
2010-11-27, 03:47:05,VALID,997.952,VALID,0,VALID,93.6383,VALID,0,VALID,22.199,VALID,33,VALID,0,
2010-11-27, 03:48:05,VALID,997.967,VALID,0,VALID,93.6383,VALID,0,VALID,22.1795,VALID,33,VALID,0,
2010-11-27, 03:49:05,VALID,997.968,VALID,0,VALID,93.6383,VALID,0,VALID,22.1812,VALID,33,VALID,0,
2010-11-27, 03:50:05,VALID,997.974,VALID,0,VALID,93.6383,VALID,0,VALID,22.1405,VALID,33,VALID,0,
2010-11-27, 03:51:05,VALID,998.008,VALID,0,VALID,93.6841,VALID,0,VALID,22.082,VALID,33,VALID,0,
2010-11-27, 03:52:05,VALID,997.985,VALID,0,VALID,93.6536,VALID,0,VALID,22.0625,VALID,33,VALID,0,
2010-11-27, 03:53:05,VALID,997.992,VALID,0,VALID,93.6688,VALID,0,VALID,22.1032,VALID,33,VALID,0,
2010-11-27, 03:54:05,VALID,998.034,VALID,0,VALID,93.6688,VALID,0,VALID,22.16,VALID,33,VALID,0,
2010-11-27, 03:55:05,VALID,998.053,VALID,0,VALID,93.6688,VALID,0.112286,VALID,22.199,VALID,33,VALID,0,